STARLINK-33821 (63859 NORAD) Tracking and Keplerian Element Data

This shows tracking and keplerian element data for the satellite.

Feedback or suggestion? Click here.




ElementValue
Catalog63859
NameSTARLINK-33821
Epoch Orbit3574
Epoch Day353.87583987
Epoch Year2025
RAAN168.7813
Inclination43.0022
Eccentricity0.0001457
Argument of Perigee266.1058
Mean Anonmoly93.9627
Mean Motion15.27606549
Decay Rate0.00016254
L11 63859U 25093Z 25353.87583987 .00016254 00000+0 59839-3 0 9997
L22 63859 43.0022 168.7813 0001457 266.1058 93.9627 15.27606549 35743



Live tracking and technical data element details for STARLINK-33821 (NORAD 63859). STARLINK-33821 can be tracked NOW for your location showing map with azimuth and elevation plus other details from your city location.







IsCatalogInMostPopularTable: catalog: 63859, numindb: 3
Update: records affected: 1



GetName: 63859 STARLINK-33821

Hit Count: updated at: Sat, 07 Feb 2026 09:02:38 GMT